TimeCDT,TemperatureF,Dew PointF,Humidity,Sea Level PressureIn,VisibilityMPH,Wind Direction,Wind SpeedMPH,Gust SpeedMPH,PrecipitationIn,Events,Conditions,WindDirDegrees,DateUTC
12:53 AM,48.0,35.1,61,30.03,10.0,West,3.5,-,N/A,,Clear,280,2012-11-01 05:53:00
1:53 AM,46.0,36.0,68,30.03,10.0,West,4.6,-,N/A,,Clear,260,2012-11-01 06:53:00
2:53 AM,46.0,35.1,66,30.03,10.0,West,3.5,-,N/A,,Clear,260,2012-11-01 07:53:00
3:53 AM,45.0,34.0,65,30.03,10.0,West,3.5,-,N/A,,Clear,260,2012-11-01 08:53:00
4:53 AM,43.0,33.1,68,30.04,10.0,Calm,Calm,-,N/A,,Clear,0,2012-11-01 09:53:00
5:53 AM,39.9,33.1,77,30.05,9.0,Calm,Calm,-,N/A,,Clear,0,2012-11-01 10:53:00
6:53 AM,41.0,33.1,73,30.05,10.0,Calm,Calm,-,N/A,,Clear,0,2012-11-01 11:53:00
7:53 AM,43.0,34.0,71,30.05,10.0,Calm,Calm,-,N/A,,Clear,0,2012-11-01 12:53:00
8:53 AM,46.9,37.9,71,30.06,10.0,Calm,Calm,-,N/A,,Clear,0,2012-11-01 13:53:00
9:19 AM,48.2,39.2,71,30.06,10.0,Calm,Calm,-,N/A,,Partly Cloudy,0,2012-11-01 14:19:00
9:53 AM,53.1,39.9,61,30.06,10.0,SE,4.6,-,N/A,,Clear,140,2012-11-01 14:53:00
10:53 AM,61.0,39.9,46,30.05,10.0,SE,3.5,-,N/A,,Clear,130,2012-11-01 15:53:00
11:53 AM,64.9,37.0,36,30.04,10.0,SE,5.8,-,N/A,,Clear,130,2012-11-01 16:53:00
12:53 PM,68.0,37.0,32,30.00,10.0,Variable,4.6,-,N/A,,Clear,0,2012-11-01 17:53:00
1:53 PM,69.1,37.9,32,29.98,10.0,East,3.5,-,N/A,,Clear,90,2012-11-01 18:53:00
2:53 PM,71.1,39.0,31,29.95,10.0,Variable,4.6,-,N/A,,Clear,0,2012-11-01 19:53:00
3:53 PM,72.0,39.0,30,29.93,10.0,Calm,Calm,-,N/A,,Clear,0,2012-11-01 20:53:00
4:53 PM,72.0,39.0,30,29.93,10.0,Calm,Calm,-,N/A,,Clear,0,2012-11-01 21:53:00
5:53 PM,69.1,39.9,35,29.93,10.0,Calm,Calm,-,N/A,,Clear,0,2012-11-01 22:53:00
6:53 PM,62.1,41.0,46,29.95,10.0,Calm,Calm,-,N/A,,Clear,0,2012-11-01 23:53:00
7:53 PM,59.0,41.0,51,29.95,10.0,WSW,3.5,-,N/A,,Clear,240,2012-11-02 00:53:00
8:53 PM,61.0,37.9,42,29.95,10.0,Calm,Calm,-,N/A,,Clear,0,2012-11-02 01:53:00
9:53 PM,57.9,39.0,49,29.96,10.0,WSW,4.6,-,N/A,,Clear,250,2012-11-02 02:53:00
10:53 PM,59.0,39.9,49,29.94,10.0,Calm,Calm,-,N/A,,Clear,0,2012-11-02 03:53:00
11:53 PM,59.0,39.9,49,29.94,10.0,West,3.5,-,N/A,,Clear,260,2012-11-02 04:53:00